Tracking 29892 objects as of 21-Nov-2024
HD Live streaming from Space Station
objects crossing your sky now

SL-24 DEB

Track SL-24 DEB now!
10-day predictions


NORAD ID: 36601
Int'l Code: 2010-028D
Perigee: 718.3 km
Apogee: 742.0 km
Inclination: 98.3 °
Period: 99.3 minutes
Semi major axis: 7101 km
RCS: 5.771 m2 (large)
Launch date: June 15, 2010
Source: Commonwealth of Independent States (former USSR) (CIS)
Launch site: Orenburg, Russia (OREN)

Note: This is SATELLITE DEBRIS
Your satellite tracking list
Your tracking list is empty




NASA's NSSDC Master Catalog

Two Line Element Set (TLE):
1 36601U 10028D   24325.53026063  .00001272  00000-0  33373-3 0  9992
2 36601  98.3343 161.2379 0016678 339.9467  20.1071 14.50818059762632
Source of the keplerian elements: AFSPC